Probability
2 1 1 1 2 2 2 2 2 1 0 0 0 0 0 0 0 0 0 0 0 0 0 0 0 1 0 0 1 2 2 1 1 2 2 2 3 6 7 6 4 4 4
5 3 2 2 3 3 4 3 2 1 1 0 0 0 0 0 0 0 0 0 0 0 0 0 1 1 1 0 0 1 2 3 2 1 2 2 3 5 7 7 7 6 5
9 6 4 4 3 4 5 4 3 3 3 1 0 0 0 0 0 0 0 0 0 0 0 0 1 2 3 2 2 2 2 4 3 2 2 3 4 4 5 7 9 8 7
10 7 6 5 4 3 4 5 4 3 3 2 1 0 0 0 0 0 0 0 0 0 0 0 0 1 3 4 5 4 3 4 4 3 2 3 3 3 3 4 7 9 9
7 7 6 5 4 4 4 4 3 3 3 3 2 1 0 0 0 0 0 0 0 0 0 0 0 0 2 3 4 5 5 4 3 3 2 1 1 2 2 2 4 6 7
5 5 4 3 3 4 3 2 2 3 3 3 3 1 0 0 0 0 0 0 0 0 0 0 0 0 0 1 2 4 5 3 2 2 1 0 1 2 2 1 1 3 4
4 3 2 2 2 2 1 1 1 1 2 2 2 1 0 0 0 0 0 0 0 0 0 0 0 1 1 1 1 2 3 2 1 1 0 0 1 2 1 0 1 1 2
1 1 0 0 0 0 0 0 0 0 1 1 1 1 0 0 0 0 0 0 0 0 0 0 0 1 1 1 0 0 1 1 1 1 0 1 2 3 1 0 1 2 1
0 0 0 0 0 0 0 0 0 0 0 0 0 0 0 0 0 0 0 0 0 0 0 0 0 0 1 1 0 0 0 0 1 2 1 1 3 3 1 0 1 2 2
0 0 0 0 0 0 0 0 0 0 0 0 0 0 0 0 0 0 0 0 0 0 0 0 0 0 0 0 0 0 0 0 1 2 2 2 2 2 1 0 0 2 3
0 0 0 0 0 0 0 0 0 0 0 0 0 0 0 0 0 0 0 0 0 0 0 0 0 0 0 0 0 0 0 0 0 1 1 1 1 1 1 0 0 2 3
0 0 0 0 0 0 0 0 0 0 0 0 0 0 0 0 0 0 0 0 0 0 0 0 0 0 1 0 0 0 0 0 0 0 0 0 0 0 0 0 0 1 2
0 0 0 0 0 0 0 0 0 0 0 0 0 0 0 0 0 0 0 0 0 0 0 0 0 0 0 0 0 0 0 0 0 0 0 0 0 0 0 0 0 0 1
0 0 0 0 0 0 0 0 0 0 0 0 0 0 0 0 0 0 0 0 0 0 0 0 0 0 0 0 0 0 0 0 0 0 0 0 0 0 0 0 0 0 0
0 0 0 0 0 0 0 0 0 0 0 0 0 0 0 0 0 0 0 0 0 0 0 0 0 0 0 0 0 0 0 0 0 0 0 0 0 0 0 0 0 0 0
0 0 0 0 0 0 0 0 0 0 0 0 0 0 0 0 0 0 0 0 0 0 0 0 0 0 0 0 0 0 0 0 0 0 0 0 0 0 0 0 0 0 0
0 0 0 0 0 0 0 0 0 0 0 0 0 0 0 0 0 0 0 0 0 0 0 0 0 0 0 0 0 0 0 0 0 0 0 0 0 0 0 0 0 0 0
0 0 0 0 0 0 0 0 0 0 0 0 0 0 0 0 0 0 0 0 0 0 0 0 0 0 0 0 0 0 0 0 0 0 0 0 0 0 0 0 0 0 0
0 0 0 0 0 0 0 0 0 0 0 0 0 0 0 0 0 0 0 0 0 0 0 0 0 0 0 0 0 0 0 0 0 0 0 0 0 0 0 0 0 0 0
0 0 0 0 0 0 0 0 0 0 0 0 0 0 0 0 0 0 0 0 0 0 0 0 0 0 0 0 0 0 0 0 0 0 0 0 0 0 0 0 0 0 0
0 0 0 0 0 0 0 0 0 0 0 0 0 0 0 0 0 0 0 0 0 0 0 0 0 0 0 0 0 0 0 0 0 0 0 0 0 0 0 0 0 0 0
0 0 0 0 0 0 0 0 0 0 0 0 0 0 0 0 0 0 0 0 0 0 0 0 0 0 0 0 0 0 0 0 0 0 0 0 0 0 0 0 0 0 0
0 0 0 0 0 0 0 0 0 0 0 0 0 0 0 0 0 0 0 0 0 0 0 0 0 0 0 0 0 0 0 0 0 0 0 0 0 0 0 0 0 0 0
0 0 0 0 0 0 0 0 0 0 0 0 0 0 0 0 0 0 0 0 0 0 0 0 0 0 0 0 0 0 0 0 0 0 0 0 0 0 0 0 0 0 0
0 0 0 0 0 0 0 0 0 0 0 0 0 0 0 0 0 0 0 0 0 0 0 0 0 0 0 0 0 0 0 0 0 0 0 0 0 0 0 0 0 0 0
0 0 0 0 0 0 0 0 0 0 0 0 0 0 0 0 0 0 0 0 0 0 0 0 0 0 0 0 0 0 0 0 0 0 0 0 0 0 0 0 0 0 0
Wind_Speed
1 1 1 0 1 1 1 1 2 2 2 2 3 4 4 4 4 4 2 2 4 5 6 7 8 8 9 8 8 8 8 8 8 8 9 9 9 8 9 9 9 9 9
1 1 1 1 1 1 1 2 2 2 2 2 3 4 4 4 4 4 3 2 2 4 5 6 7 7 8 8 8 8 8 8 8 8 8 9 8 8 9 9 9 9 10
1 1 1 1 1 1 2 2 2 2 2 2 3 4 3 4 3 4 3 3 2 2 4 5 5 5 5 6 6 7 6 6 6 7 8 8 8 9 9 9 9 9 10
0 1 1 1 1 1 1 1 1 2 2 2 3 3 3 2 3 3 3 2 2 2 2 2 4 4 4 4 4 5 6 5 5 6 6 7 9 9 9 10 10 10 10
0 1 1 1 1 1 1 1 1 2 3 3 3 3 2 2 2 2 2 2 2 2 2 0 1 3 4 4 5 5 6 6 6 7 7 8 9 9 9 10 10 10 10
0 1 1 1 1 1 1 2 1 1 2 2 2 2 2 2 2 2 2 2 1 2 2 2 2 1 2 4 5 6 6 6 6 7 7 8 9 9 9 10 10 11 11
1 0 1 1 1 1 1 2 2 2 1 2 2 2 2 2 1 1 2 2 1 2 2 2 2 2 2 2 4 6 7 7 7 8 8 8 9 9 9 10 10 10 11
1 1 1 1 1 1 1 2 2 2 1 1 2 2 2 3 2 2 1 1 2 2 2 2 2 3 3 2 2 5 6 8 8 8 8 9 9 9 9 10 10 10 11
1 1 2 2 1 2 1 2 2 2 2 2 2 2 3 2 2 2 2 2 2 2 2 2 2 3 3 3 3 3 6 8 8 9 8 8 8 8 8 8 8 9 10
1 0 1 2 2 2 2 2 2 2 3 2 2 3 4 3 3 2 2 2 3 4 3 2 3 3 3 3 3 5 6 7 8 8 8 8 8 8 8 8 6 6 6
1 1 1 1 2 2 2 3 3 3 3 3 3 3 4 4 4 4 4 3 3 3 3 3 3 2 2 3 3 4 5 6 7 8 7 7 7 7 7 6 6 5 5
1 1 2 2 2 2 2 3 3 3 3 4 3 3 3 3 3 4 5 5 4 3 3 3 3 2 2 3 3 4 5 6 7 7 7 8 7 7 7 6 6 5 6
2 2 2 2 2 2 3 3 3 3 4 4 4 3 3 4 3 4 5 5 5 4 4 3 3 3 2 3 2 4 4 5 6 7 7 7 6 7 7 6 6 6 6
2 2 3 3 3 3 3 3 3 3 3 4 4 4 3 3 3 4 4 4 5 4 4 4 2 3 2 3 3 4 4 5 6 6 6 6 6 6 6 7 6 6 6
2 3 3 4 3 3 3 4 3 3 3 4 4 4 3 3 3 3 4 4 5 5 5 3 2 2 2 3 3 3 4 4 6 6 6 6 6 6 6 6 6 6 6
3 4 4 4 4 4 4 4 4 4 4 4 3 4 4 3 3 3 4 4 5 6 5 3 3 3 3 3 4 4 4 5 6 6 6 6 6 6 6 7 5 5 6
4 5 4 4 5 5 5 5 5 4 5 4 4 5 5 4 3 3 3 4 5 5 7 5 4 3 4 4 4 4 4 4 3 5 6 6 6 6 6 6 5 6 6
4 5 5 5 5 5 5 5 5 5 6 6 6 5 5 4 5 4 4 4 4 5 6 7 5 3 4 4 4 4 4 3 4 5 6 7 7 7 7 6 6 7 7
5 5 5 5 6 5 5 6 6 6 6 6 6 6 6 5 5 4 5 5 4 4 5 5 5 3 3 3 4 4 4 4 4 4 5 7 7 7 7 7 7 6 7
5 5 5 6 6 6 6 6 6 6 7 7 6 6 6 6 6 6 5 5 5 5 5 5 5 4 3 3 3 3 4 3 4 3 4 5 6 7 7 7 6 6 6
6 5 6 6 6 6 6 6 6 7 7 7 6 7 6 6 6 6 5 5 5 5 5 5 5 4 4 3 3 3 4 4 4 3 4 4 4 4 4 5 5 5 6
6 6 6 6 6 5 6 8 8 7 7 7 7 7 6 7 8 9 9 9 7 7 6 6 5 6 6 5 4 3 3 3 3 1 3 5 3 4 4 3 4 6 7
6 6 7 7 7 7 8 9 9 8 8 8 8 7 6 5 7 7 8 9 9 10 9 8 8 7 6 5 5 5 5 5 5 3 3 5 3 4 3 4 6 6 6
6 6 7 7 8 7 8 10 9 9 8 8 8 8 8 7 7 7 7 7 8 8 8 8 8 8 7 5 5 5 5 5 5 3 3 4 3 4 4 4 5 6 6
7 7 7 7 8 8 8 9 9 7 7 9 8 8 8 8 8 8 8 8 8 7 7 8 8 8 7 7 5 4 4 4 4 3 2 3 3 3 4 4 3 5 6
7 7 7 8 9 9 8 10 10 6 7 7 7 8 9 10 10 10 9 9 9 8 6 6 7 7 7 6 7 6 5 4 3 3 2 3 2 2 3 2 2 3 4
Wind_Direction
162 154 170 206 274 292 264 270 270 277 272 269 267 271 270 265 265 265 258 246 275 281 275 267 263 261 254 249 250 251 251 252 252 252 248 245 244 244 247 250 251 255 259
174 199 201 211 258 279 280 267 272 270 270 271 275 275 275 275 269 266 269 243 247 283 285 277 271 266 258 251 250 251 254 256 255 256 256 254 254 251 251 253 254 256 258
200 203 214 217 253 282 279 275 283 276 276 277 277 280 277 276 276 269 269 274 259 257 285 288 288 282 272 262 260 258 256 259 259 260 264 265 263 261 257 258 258 260 260
286 228 219 222 238 254 267 276 286 289 278 283 285 285 279 276 276 280 277 278 282 277 260 298 301 300 289 284 279 273 269 270 274 269 268 272 268 264 262 260 260 261 263
325 274 253 252 245 241 253 265 273 283 288 294 291 286 282 272 270 275 281 285 286 292 289 265 299 329 318 304 294 290 282 275 280 278 271 277 275 268 266 265 263 263 264
277 305 301 298 286 257 251 257 262 270 283 296 289 285 276 266 270 285 284 280 284 287 290 292 269 271 303 305 303 301 298 291 280 278 273 276 276 273 270 270 269 268 268
301 297 320 315 311 292 285 275 268 261 270 295 274 270 247 230 252 272 276 282 291 289 286 288 290 289 281 290 306 309 304 296 286 273 269 270 272 273 271 273 271 272 273
10 338 312 283 296 292 293 287 273 261 253 269 282 281 268 224 212 244 264 286 292 287 288 295 301 298 299 297 328 320 313 304 295 284 275 271 270 269 272 270 267 269 272
13 355 333 308 291 287 287 294 289 273 268 257 263 279 273 271 297 223 241 257 277 282 283 288 289 295 298 303 308 326 323 312 303 291 285 280 273 269 271 271 273 274 271
324 330 316 313 308 292 281 275 280 282 267 259 245 252 271 289 273 271 226 243 270 278 281 282 279 284 294 297 311 334 331 319 310 307 304 293 280 272 269 273 280 293 299
314 315 302 298 298 295 293 290 285 274 267 267 264 255 250 256 257 263 269 267 259 267 279 280 278 284 288 290 300 327 324 315 312 310 306 308 305 293 287 287 289 297 306
285 304 293 281 281 285 287 284 279 272 268 268 268 264 264 258 253 257 269 275 275 272 272 272 269 274 280 282 299 330 324 322 318 316 314 311 312 315 312 306 305 304 307
271 284 282 277 273 274 278 278 273 270 268 264 264 263 265 269 276 274 274 277 274 273 267 262 262 267 275 280 291 305 302 313 315 315 313 315 323 325 326 319 314 315 313
272 277 270 269 272 273 271 268 267 266 268 264 264 265 265 266 260 257 265 274 276 264 254 257 256 258 268 276 306 284 290 301 305 307 308 314 317 318 319 320 315 316 318
268 264 262 263 264 264 266 266 260 263 264 263 264 262 261 265 267 262 255 256 266 275 269 257 257 255 265 278 294 282 287 298 295 294 295 301 306 308 308 310 308 310 313
263 264 262 262 260 256 253 255 261 260 259 262 265 259 256 259 260 260 257 254 252 260 267 265 268 281 280 281 285 283 283 286 281 284 284 294 297 300 302 302 300 304 305
257 258 259 257 256 254 251 250 256 261 259 260 258 257 257 260 256 254 255 255 254 254 262 269 272 283 278 280 283 285 289 287 288 288 290 294 293 292 294 295 296 297 300
254 256 256 255 255 253 251 251 253 254 254 254 255 255 257 257 255 256 252 251 254 256 263 271 273 273 275 285 286 285 287 286 284 290 288 290 290 289 287 288 290 290 293
254 251 250 253 256 256 254 251 252 255 255 255 255 253 254 253 253 252 253 254 252 253 256 266 274 276 274 281 287 287 283 281 282 284 278 282 282 281 281 282 281 284 289
254 252 249 252 256 256 255 253 251 252 254 255 255 253 252 250 252 253 252 254 256 255 253 257 264 267 268 279 280 281 282 283 282 281 278 282 279 275 270 271 273 282 286
254 255 254 253 253 253 251 253 254 253 253 255 254 251 250 251 256 256 257 256 252 252 253 253 256 258 255 259 263 272 278 289 283 271 281 276 272 266 261 259 263 278 284
254 252 251 252 252 250 248 250 257 256 253 253 254 255 252 244 244 246 250 254 255 252 253 254 255 256 257 255 258 260 273 280 276 264 287 280 270 268 267 266 279 285 285
254 253 253 253 255 254 249 252 252 257 254 252 253 254 252 248 243 246 244 242 243 245 252 260 262 262 265 256 253 253 256 267 271 290 288 274 266 271 275 274 276 279 279
251 252 253 254 256 255 247 252 254 254 254 253 252 252 254 252 242 244 251 251 250 244 242 246 257 265 267 264 256 259 264 270 274 263 258 266 275 279 286 276 259 266 272
253 253 254 254 257 257 243 247 250 253 252 253 251 251 252 253 243 236 246 252 255 253 243 244 256 263 266 258 253 250 244 252 263 251 222 259 277 290 284 269 259 262 270
256 257 254 252 254 258 250 245 245 248 253 255 253 249 243 247 247 235 242 248 252 253 249 242 240 243 245 241 234 238 240 243 253 252 200 235 261 291 287 266 268 274 274